Location: *
(51.0333°S, 178.4667°E)
Time: 02:20:52
(UTC+00:00)

Cosmos 2084 - Pass Details

Date: 15 November 2019
Orbit: 558 x 625 km, 62.8° (Epoch: 12 December)

Event Time Altitude Azimuth Distance (km) Brightness Sun altitude
Rises 10:17:00 0° 311° (NW) 2,762 6.7 -17.5°
Reaches altitude 10° 10:19:12 10° 308° (NW) 1,877 5.9 -17.7°
Maximum altitude 10:23:26 74° 223° (SW) 610 3.6 -17.9°
Drops below altitude 10° 10:27:47 10° 137° (SE) 1,928 6.4 -18.2°
Sets 10:30:04 0° 134° (SE) 2,845 7.3 -18.3°
